Douglas Bisbee, AZ

1:56 PM MST on June 22, 2017 (GMT -0700)
Bisbee Douglas International

Weather History for KDUG - November, 2012

Change the Weather History Date:

Sunday, November 4, 2012

  Actual Average Record
Temperature  
Mean Temperature 62 °F 58 °F  
Max Temperature 82 °F 75 °F 84 °F (2001)
Min Temperature 42 °F 40 °F 21 °F (1956)
Degree Days  
Heating Degree Days 3 8  
Month to date heating degree days 16 29  
Since 1 July heating degree days 63 112  
Cooling Degree Days 0 0  
Month to date cooling degree days 0 0  
Year to date cooling degree days 2055 1812  
Growing Degree Days 12 (Base 50)    
Moisture  
Dew Point 26 °F    
Average Humidity 32    
Maximum Humidity 53    
Minimum Humidity 11    
Precipitation  
Precipitation 0.00 in 0.03 in 0.46 in (2000)
Month to date precipitation 0.00 0.10  
Year to date precipitation 7.15 11.54  
Snow  
Snow 0.00 in - - ()
Month to date snowfall 0.0  
Snow Depth 0.00 in    
Sea Level Pressure  
Sea Level Pressure 30.05 in    
Wind  
Wind Speed 6 mph (North)    
Max Wind Speed 13 mph    
Max Gust Speed 20 mph    
Visibility 10 miles    
Events      
T = Trace of Precipitation, MM = Missing Value Source: NWS Daily Summary

Daily Weather History Graph

Daily Weather History Graph

Search for Another Location

Airport or City:

Trip Planner

Search our weather history database for the weather conditions in past years. The results will help you decide how hot, cold, wet, or windy it might be!

Date:

Astronomy

Nov. 04, 2012 Rise Set
Actual Time 6:37 AM MST 5:26 PM MST
Civil Twilight 6:11 AM MST 5:51 PM MST
Nautical Twilight 5:43 AM MST 6:20 PM MST
Astronomical Twilight 5:14 AM MST 6:48 PM MST
Moon 10:10 PM MST (11/4) 11:19 AM MST (11/4)
Length of Visible Light 11h 39m
Length of Day
10h 49m
Waning Gibbous, 71% of the Moon is Illuminated
Nov 4
Waning Gibbous
Nov 6
Last Quarter
Nov 13
New
Nov 20
First Quarter
Nov 28
Full

Hourly Weather History & Observations

Time (MST) Temp. Windchill Dew Point Humidity Pressure Visibility Wind Dir Wind Speed Gust Speed Precip Events Conditions
12:56 AM 50.0 °F - 28.0 °F 43% 30.02 in 10.0 mi North 5.8 mph - N/A   Clear
1:56 AM 46.0 °F - 26.1 °F 46% 30.04 in 10.0 mi Calm Calm - N/A   Clear
2:56 AM 46.0 °F 41.9 °F 27.0 °F 47% 30.04 in 10.0 mi North 8.1 mph - N/A   Clear
3:56 AM 42.1 °F - 25.0 °F 51% 30.05 in 10.0 mi Calm Calm - N/A   Clear
4:56 AM 42.1 °F - 24.1 °F 49% 30.06 in 10.0 mi Calm Calm - N/A   Clear
5:56 AM 43.0 °F - 27.0 °F 53% 30.08 in 10.0 mi Calm Calm - N/A   Clear
6:56 AM 42.1 °F 40.2 °F 26.1 °F 53% 30.11 in 10.0 mi North 3.5 mph - N/A   Clear
7:56 AM 52.0 °F - 28.9 °F 41% 30.10 in 10.0 mi NNW 3.5 mph - N/A   Clear
8:56 AM 59.0 °F - 30.0 °F 33% 30.10 in 10.0 mi NW 6.9 mph - N/A   Clear
9:56 AM 68.0 °F - 30.0 °F 24% 30.09 in 10.0 mi NW 8.1 mph - N/A   Clear
10:56 AM 73.9 °F - 28.9 °F 19% 30.07 in 10.0 mi Variable 4.6 mph - N/A   Clear
11:56 AM 79.0 °F - 28.9 °F 16% 30.03 in 10.0 mi ENE 4.6 mph - N/A   Clear
12:56 PM 80.1 °F - 26.1 °F 14% 30.01 in 10.0 mi Variable 5.8 mph - N/A   Clear
1:56 PM 79.0 °F - 23.0 °F 13% 29.99 in 10.0 mi Variable 3.5 mph - N/A   Clear
2:56 PM 81.0 °F - 21.9 °F 11% 29.99 in 10.0 mi NE 4.6 mph - N/A   Clear
3:56 PM 80.1 °F - 21.9 °F 12% 30.00 in 10.0 mi ESE 10.4 mph - N/A   Clear
4:56 PM 78.1 °F - 27.0 °F 15% 30.01 in 10.0 mi North 5.8 mph - N/A   Clear
5:56 PM 69.1 °F - 26.1 °F 20% 30.05 in 10.0 mi North 9.2 mph - N/A   Clear
6:56 PM 66.0 °F - 26.1 °F 22% 30.07 in 10.0 mi NNE 10.4 mph - N/A   Clear
7:56 PM 61.0 °F - 25.0 °F 25% 30.06 in 10.0 mi ENE 10.4 mph - N/A   Clear
8:56 PM 54.0 °F - 24.1 °F 31% 30.08 in 10.0 mi West 4.6 mph - N/A   Clear
9:56 PM 52.0 °F - 24.1 °F 34% 30.08 in 10.0 mi NW 10.4 mph - N/A   Clear
10:56 PM 54.0 °F - 24.1 °F 31% 30.06 in 10.0 mi NNW 10.4 mph - N/A   Clear
11:56 PM 53.1 °F - 23.0 °F 31% 30.06 in 10.0 mi North 10.4 mph - N/A   Clear